Time,TemperatureF,DewpointF,PressureIn,WindDirection,WindDirectionDegrees,WindSpeedMPH,WindSpeedGustMPH,Humidity,HourlyPrecipIn,Conditions,Clouds,dailyrainin,SoftwareType,DateUTC
2013-09-23 00:05:00,52.1,50.0,29.97,East,80,0.0,0.0,92,0.00,,,0.00,weatherlink.com 1.10,2013-09-23 05:05:00,
2013-09-23 00:21:00,50.9,49.0,29.97,East,80,0.0,0.0,93,0.00,,,0.00,weatherlink.com 1.10,2013-09-23 05:21:00,
2013-09-23 00:36:00,50.4,49.0,29.97,East,80,0.0,0.0,94,0.00,,,0.00,weatherlink.com 1.10,2013-09-23 05:36:00,
2013-09-23 00:52:00,50.5,49.0,29.97,East,81,0.0,0.0,96,0.00,,,0.00,weatherlink.com 1.10,2013-09-23 05:52:00,
2013-09-23 01:06:00,53.9,50.0,29.97,ENE,70,0.0,0.0,85,0.00,,,0.00,weatherlink.com 1.10,2013-09-23 06:06:00,
2013-09-23 01:22:00,54.6,49.0,29.97,ENE,77,0.0,0.0,81,0.00,,,0.00,weatherlink.com 1.10,2013-09-23 06:22:00,
2013-09-23 01:37:00,54.2,49.0,29.97,East,94,0.0,0.0,82,0.00,,,0.00,weatherlink.com 1.10,2013-09-23 06:37:00,
2013-09-23 01:51:00,53.7,49.0,29.97,East,89,0.0,0.0,83,0.00,,,0.00,weatherlink.com 1.10,2013-09-23 06:51:00,
2013-09-23 02:07:00,53.2,49.0,29.97,ENE,74,0.0,0.0,85,0.00,,,0.00,weatherlink.com 1.10,2013-09-23 07:07:00,
2013-09-23 02:21:00,52.4,48.0,29.97,ENE,77,0.0,0.0,86,0.00,,,0.00,weatherlink.com 1.10,2013-09-23 07:21:00,
2013-09-23 02:37:00,52.1,48.0,29.97,ENE,73,0.0,0.0,87,0.00,,,0.00,weatherlink.com 1.10,2013-09-23 07:37:00,
2013-09-23 02:52:00,52.0,49.0,29.97,East,81,0.0,0.0,88,0.00,,,0.00,weatherlink.com 1.10,2013-09-23 07:52:00,
2013-09-23 03:08:00,51.6,49.0,29.97,ENE,77,0.0,0.0,89,0.00,,,0.00,weatherlink.com 1.10,2013-09-23 08:08:00,
2013-09-23 03:22:00,51.2,48.0,29.97,ENE,77,0.0,0.0,90,0.00,,,0.00,weatherlink.com 1.10,2013-09-23 08:22:00,
2013-09-23 03:37:00,51.0,48.0,29.98,ENE,73,0.0,0.0,90,0.00,,,0.00,weatherlink.com 1.10,2013-09-23 08:37:00,
2013-09-23 03:53:00,50.8,48.0,29.98,East,84,0.0,0.0,91,0.00,,,0.00,weatherlink.com 1.10,2013-09-23 08:53:00,
2013-09-23 04:07:00,50.6,48.0,29.98,East,84,0.0,0.0,91,0.00,,,0.00,weatherlink.com 1.10,2013-09-23 09:07:00,
2013-09-23 04:23:00,50.3,48.0,29.99,ENE,75,0.0,0.0,92,0.00,,,0.00,weatherlink.com 1.10,2013-09-23 09:23:00,
2013-09-23 04:37:00,50.1,48.0,29.99,ENE,69,0.0,0.0,92,0.00,,,0.00,weatherlink.com 1.10,2013-09-23 09:37:00,
2013-09-23 04:53:00,49.9,48.0,29.99,ENE,75,0.0,0.0,92,0.00,,,0.00,weatherlink.com 1.10,2013-09-23 09:53:00,
2013-09-23 05:07:00,49.7,48.0,29.99,East,79,0.0,0.0,92,0.00,,,0.00,weatherlink.com 1.10,2013-09-23 10:07:00,
2013-09-23 05:23:00,49.5,48.0,30.00,ENE,69,0.0,0.0,93,0.00,,,0.00,weatherlink.com 1.10,2013-09-23 10:23:00,
2013-09-23 05:38:00,49.3,47.0,30.00,ENE,74,0.0,0.0,93,0.00,,,0.00,weatherlink.com 1.10,2013-09-23 10:38:00,
2013-09-23 05:53:00,49.3,47.0,30.00,East,79,0.0,0.0,93,0.00,,,0.00,weatherlink.com 1.10,2013-09-23 10:53:00,
2013-09-23 06:08:00,49.1,47.0,30.00,ENE,75,0.0,0.0,93,0.00,,,0.00,weatherlink.com 1.10,2013-09-23 11:08:00,
2013-09-23 06:24:00,49.1,47.0,30.01,ENE,63,0.0,0.0,93,0.00,,,0.00,weatherlink.com 1.10,2013-09-23 11:24:00,
2013-09-23 06:38:00,48.7,47.0,30.01,ENE,65,0.0,0.0,93,0.00,,,0.00,weatherlink.com 1.10,2013-09-23 11:38:00,
2013-09-23 06:53:00,48.4,47.0,30.02,ENE,65,0.0,0.0,94,0.00,,,0.00,weatherlink.com 1.10,2013-09-23 11:53:00,
2013-09-23 07:08:00,49.1,48.0,30.02,ENE,67,0.0,0.0,94,0.00,,,0.00,weatherlink.com 1.10,2013-09-23 12:08:00,
2013-09-23 07:24:00,49.7,48.0,30.03,ENE,67,0.0,0.0,93,0.00,,,0.00,weatherlink.com 1.10,2013-09-23 12:24:00,
2013-09-23 07:39:00,50.5,48.0,30.03,ENE,70,0.0,0.0,92,0.00,,,0.00,weatherlink.com 1.10,2013-09-23 12:39:00,
2013-09-23 07:53:00,51.0,49.0,30.03,East,95,0.0,0.0,92,0.00,,,0.00,weatherlink.com 1.10,2013-09-23 12:53:00,
2013-09-23 08:09:00,52.1,50.0,30.03,East,92,0.0,0.0,91,0.00,,,0.00,weatherlink.com 1.10,2013-09-23 13:09:00,
2013-09-23 08:24:00,52.7,50.0,30.03,East,82,0.0,0.0,90,0.00,,,0.00,weatherlink.com 1.10,2013-09-23 13:24:00,
2013-09-23 08:40:00,54.3,51.0,30.03,ENE,78,0.0,0.0,87,0.00,,,0.00,weatherlink.com 1.10,2013-09-23 13:40:00,
2013-09-23 08:54:00,55.3,51.0,30.03,East,82,0.0,0.0,86,0.00,,,0.00,weatherlink.com 1.10,2013-09-23 13:54:00,
2013-09-23 09:10:00,57.1,51.0,30.04,SSE,162,0.0,0.0,81,0.00,,,0.00,weatherlink.com 1.10,2013-09-23 14:10:00,
2013-09-23 09:25:00,59.0,52.0,30.04,SE,126,0.0,0.0,78,0.00,,,0.00,weatherlink.com 1.10,2013-09-23 14:25:00,
2013-09-23 09:39:00,60.0,53.0,30.04,WSW,246,0.0,0.0,77,0.00,,,0.00,weatherlink.com 1.10,2013-09-23 14:39:00,
2013-09-23 09:55:00,60.8,53.0,30.04,ENE,72,0.0,0.0,76,0.00,,,0.00,weatherlink.com 1.10,2013-09-23 14:55:00,
2013-09-23 10:10:00,62.2,54.0,30.04,SW,228,0.0,0.0,74,0.00,,,0.00,weatherlink.com 1.10,2013-09-23 15:10:00,
2013-09-23 10:24:00,64.1,55.0,30.04,SSE,167,0.0,0.0,72,0.00,,,0.00,weatherlink.com 1.10,2013-09-23 15:24:00,
2013-09-23 10:40:00,65.0,55.0,30.04,SSW,193,0.0,0.0,71,0.00,,,0.00,weatherlink.com 1.10,2013-09-23 15:40:00,
2013-09-23 10:55:00,65.7,55.0,30.04,East,89,0.0,0.0,68,0.00,,,0.00,weatherlink.com 1.10,2013-09-23 15:55:00,
2013-09-23 11:10:00,66.4,55.0,30.04,SW,236,1.0,7.0,67,0.00,,,0.00,weatherlink.com 1.10,2013-09-23 16:10:00,
2013-09-23 11:25:00,67.9,56.0,30.03,East,79,0.0,4.0,67,0.00,,,0.00,weatherlink.com 1.10,2013-09-23 16:25:00,
2013-09-23 11:40:00,70.6,54.0,30.02,West,272,3.0,6.0,55,0.00,,,0.00,weatherlink.com 1.10,2013-09-23 16:40:00,
2013-09-23 11:55:00,70.2,54.0,30.02,WSW,257,3.0,10.0,56,0.00,,,0.00,weatherlink.com 1.10,2013-09-23 16:55:00,
2013-09-23 12:10:00,72.0,54.0,30.02,ESE,104,8.0,13.0,54,0.00,,,0.00,weatherlink.com 1.10,2013-09-23 17:10:00,
2013-09-23 12:25:00,72.3,54.0,30.01,East,97,2.0,7.0,53,0.00,,,0.00,weatherlink.com 1.10,2013-09-23 17:25:00,
2013-09-23 12:40:00,72.7,53.0,30.01,ESE,117,1.0,8.0,51,0.00,,,0.00,weatherlink.com 1.10,2013-09-23 17:40:00,
2013-09-23 12:55:00,73.6,54.0,30.00,WSW,246,3.0,8.0,51,0.00,,,0.00,weatherlink.com 1.10,2013-09-23 17:55:00,
2013-09-23 13:10:00,73.5,54.0,30.00,West,266,2.0,12.0,51,0.00,,,0.00,weatherlink.com 1.10,2013-09-23 18:10:00,
2013-09-23 13:26:00,73.5,54.0,29.99,South,183,4.0,6.0,50,0.00,,,0.00,weatherlink.com 1.10,2013-09-23 18:26:00,
2013-09-23 13:41:00,74.4,53.0,29.99,ENE,58,1.0,8.0,48,0.00,,,0.00,weatherlink.com 1.10,2013-09-23 18:41:00,
2013-09-23 13:56:00,73.4,54.0,29.98,ENE,67,4.0,11.0,50,0.00,,,0.00,weatherlink.com 1.10,2013-09-23 18:56:00,
2013-09-23 14:11:00,74.4,54.0,29.98,East,84,3.0,8.0,49,0.00,,,0.00,weatherlink.com 1.10,2013-09-23 19:11:00,
2013-09-23 14:26:00,74.2,54.0,29.97,ESE,110,2.0,9.0,49,0.00,,,0.00,weatherlink.com 1.10,2013-09-23 19:26:00,
2013-09-23 14:41:00,75.5,55.0,29.96,SW,228,6.0,8.0,49,0.00,,,0.00,weatherlink.com 1.10,2013-09-23 19:41:00,
2013-09-23 14:56:00,76.1,54.0,29.96,ENE,73,2.0,4.0,47,0.00,,,0.00,weatherlink.com 1.10,2013-09-23 19:56:00,
2013-09-23 15:11:00,76.2,54.0,29.95,ENE,65,3.0,9.0,47,0.00,,,0.00,weatherlink.com 1.10,2013-09-23 20:11:00,
2013-09-23 15:26:00,75.9,54.0,29.95,SSW,207,5.0,9.0,46,0.00,,,0.00,weatherlink.com 1.10,2013-09-23 20:26:00,
2013-09-23 15:41:00,75.4,53.0,29.95,East,84,2.0,8.0,45,0.00,,,0.00,weatherlink.com 1.10,2013-09-23 20:41:00,
2013-09-23 15:56:00,75.7,52.0,29.95,ENE,76,9.0,10.0,44,0.00,,,0.00,weatherlink.com 1.10,2013-09-23 20:56:00,
2013-09-23 16:11:00,74.9,53.0,29.94,ESE,113,2.0,11.0,46,0.00,,,0.00,weatherlink.com 1.10,2013-09-23 21:11:00,
2013-09-23 16:26:00,75.5,53.0,29.94,East,89,5.0,5.0,46,0.00,,,0.00,weatherlink.com 1.10,2013-09-23 21:26:00,
2013-09-23 16:41:00,75.8,52.0,29.93,East,80,1.0,7.0,43,0.00,,,0.00,weatherlink.com 1.10,2013-09-23 21:41:00,
2013-09-23 16:56:00,74.6,53.0,29.94,East,82,1.0,8.0,47,0.00,,,0.00,weatherlink.com 1.10,2013-09-23 21:56:00,
2013-09-23 17:13:00,75.0,51.0,29.93,East,92,1.0,6.0,43,0.00,,,0.00,weatherlink.com 1.10,2013-09-23 22:13:00,
2013-09-23 17:25:00,73.9,51.0,29.93,East,79,2.0,5.0,45,0.00,,,0.00,weatherlink.com 1.10,2013-09-23 22:25:00,
2013-09-23 17:40:00,73.2,51.0,29.93,SE,128,1.0,3.0,46,0.00,,,0.00,weatherlink.com 1.10,2013-09-23 22:40:00,
2013-09-23 17:55:00,71.9,52.0,29.93,ENE,76,3.0,3.0,49,0.00,,,0.00,weatherlink.com 1.10,2013-09-23 22:55:00,
2013-09-23 18:10:00,71.0,51.0,29.93,East,89,0.0,2.0,50,0.00,,,0.00,weatherlink.com 1.10,2013-09-23 23:10:00,
2013-09-23 18:25:00,69.6,52.0,29.93,ENE,65,1.0,2.0,54,0.00,,,0.00,weatherlink.com 1.10,2013-09-23 23:25:00,
2013-09-23 18:40:00,68.3,52.0,29.93,ENE,67,0.0,1.0,56,0.00,,,0.00,weatherlink.com 1.10,2013-09-23 23:40:00,
2013-09-23 18:55:00,67.1,52.0,29.93,ENE,66,0.0,1.0,59,0.00,,,0.00,weatherlink.com 1.10,2013-09-23 23:55:00,
2013-09-23 19:10:00,65.5,52.0,29.92,ENE,68,1.0,1.0,61,0.00,,,0.00,weatherlink.com 1.10,2013-09-24 00:10:00,
2013-09-23 19:26:00,64.7,51.0,29.92,ENE,68,1.0,1.0,62,0.00,,,0.00,weatherlink.com 1.10,2013-09-24 00:26:00,
2013-09-23 19:41:00,64.1,51.0,29.92,ENE,68,0.0,1.0,63,0.00,,,0.00,weatherlink.com 1.10,2013-09-24 00:41:00,
2013-09-23 19:57:00,63.8,51.0,29.93,ENE,68,1.0,1.0,63,0.00,,,0.00,weatherlink.com 1.10,2013-09-24 00:57:00,
2013-09-23 20:12:00,63.3,51.0,29.93,ENE,68,0.0,1.0,64,0.00,,,0.00,weatherlink.com 1.10,2013-09-24 01:12:00,
2013-09-23 20:26:00,62.6,51.0,29.93,ENE,68,0.0,0.0,65,0.00,,,0.00,weatherlink.com 1.10,2013-09-24 01:26:00,
2013-09-23 20:41:00,62.1,51.0,29.93,ENE,68,1.0,1.0,66,0.00,,,0.00,weatherlink.com 1.10,2013-09-24 01:41:00,
2013-09-23 20:56:00,61.9,50.0,29.93,ENE,68,1.0,2.0,66,0.00,,,0.00,weatherlink.com 1.10,2013-09-24 01:56:00,
2013-09-23 21:11:00,61.4,50.0,29.93,ENE,70,1.0,2.0,67,0.00,,,0.00,weatherlink.com 1.10,2013-09-24 02:11:00,
2013-09-23 21:26:00,61.1,50.0,29.94,ENE,70,0.0,1.0,68,0.00,,,0.00,weatherlink.com 1.10,2013-09-24 02:26:00,
2013-09-23 21:41:00,60.3,51.0,29.93,ENE,69,1.0,1.0,71,0.00,,,0.00,weatherlink.com 1.10,2013-09-24 02:41:00,
2013-09-23 21:56:00,59.5,50.0,29.94,ENE,69,1.0,2.0,72,0.00,,,0.00,weatherlink.com 1.10,2013-09-24 02:56:00,
2013-09-23 22:11:00,59.0,50.0,29.94,ENE,69,0.0,1.0,72,0.00,,,0.00,weatherlink.com 1.10,2013-09-24 03:11:00,
2013-09-23 22:27:00,57.5,50.0,29.95,ENE,69,0.0,0.0,75,0.00,,,0.00,weatherlink.com 1.10,2013-09-24 03:27:00,
2013-09-23 22:42:00,56.4,49.0,29.95,ENE,70,0.0,0.0,77,0.00,,,0.00,weatherlink.com 1.10,2013-09-24 03:42:00,
2013-09-23 22:57:00,56.0,49.0,29.95,ENE,70,0.0,0.0,78,0.00,,,0.00,weatherlink.com 1.10,2013-09-24 03:57:00,
2013-09-23 23:12:00,56.1,50.0,29.95,East,101,1.0,2.0,80,0.00,,,0.00,weatherlink.com 1.10,2013-09-24 04:12:00,
2013-09-23 23:27:00,56.6,50.0,29.95,East,89,1.0,2.0,78,0.00,,,0.00,weatherlink.com 1.10,2013-09-24 04:27:00,
2013-09-23 23:42:00,56.2,49.0,29.95,ESE,115,0.0,0.0,78,0.00,,,0.00,weatherlink.com 1.10,2013-09-24 04:42:00,
2013-09-23 23:57:00,55.6,50.0,29.95,NW,309,0.0,1.0,80,0.00,,,0.00,weatherlink.com 1.10,2013-09-24 04:57:00,